SCP
0 0 0 0 0 0 0 0 0 0 0 0 0 1 2 3 3 3 3 3 3 2 2 3 3 3 2 2 2 2 2 2 2 2 2 2 2 2 2 2 1 1 1 0
0 0 0 0 0 0 0 0 0 0 0 0 0 1 2 3 3 3 2 3 3 3 3 3 3 3 2 3 3 3 2 3 3 2 2 2 2 2 1 1 1 1 1 0
0 0 0 0 0 0 0 0 0 0 0 0 0 1 2 3 3 3 2 2 3 3 4 4 3 3 2 3 3 3 3 3 3 3 3 2 2 1 1 1 1 1 1 1
0 0 0 0 0 0 0 0 0 0 0 0 0 1 2 3 3 2 2 2 2 3 4 3 3 3 3 3 3 3 2 2 3 3 3 3 2 1 1 1 1 1 1 1
0 0 0 0 0 0 0 0 0 0 0 0 0 1 2 3 2 2 2 2 2 3 4 4 4 3 3 3 3 3 2 2 3 3 3 2 2 1 1 1 1 1 1 1
0 0 0 0 0 0 0 0 0 0 0 0 0 0 1 2 2 2 2 2 2 3 4 4 4 3 3 3 3 3 2 2 3 3 3 2 2 1 1 1 1 1 1 0
0 0 0 0 0 0 0 0 0 0 0 0 0 0 0 1 1 2 3 3 3 3 4 4 4 3 3 3 3 3 3 3 3 3 2 2 2 2 1 1 1 1 1 1
0 0 0 0 0 0 0 0 0 0 0 0 0 0 0 1 1 2 4 4 4 3 3 4 4 3 3 3 4 4 3 3 3 3 3 3 3 2 2 2 2 2 1 1
0 0 0 0 0 0 0 0 0 0 0 0 0 0 1 1 1 3 5 5 5 4 4 4 4 3 3 3 4 4 4 4 3 3 3 3 3 3 3 3 3 2 2 2
0 0 0 0 0 0 0 0 0 0 0 0 0 0 1 1 2 3 5 5 4 4 3 3 3 3 3 3 3 3 4 4 4 3 3 3 3 3 3 3 3 3 3 3
0 0 0 0 0 0 0 0 0 0 0 0 0 0 0 1 2 3 4 4 3 3 3 3 3 3 3 3 3 3 3 3 3 3 3 3 3 3 3 4 4 4 4 3
0 0 0 0 0 0 0 0 0 0 0 0 0 0 0 1 2 3 3 3 3 3 3 3 3 3 3 3 3 3 3 3 3 3 3 3 2 2 3 4 4 4 4 4
0 0 0 0 0 0 0 0 0 0 0 0 0 0 0 1 2 2 3 2 2 2 3 2 2 2 3 3 3 3 3 3 3 3 3 3 3 2 2 3 4 4 5 4
0 0 0 0 0 0 0 0 0 0 0 0 0 0 0 1 1 1 2 2 2 2 2 2 2 2 2 2 3 3 3 3 3 4 4 3 3 3 2 3 3 4 4 4
0 0 0 0 0 0 0 0 0 0 0 0 0 0 0 1 1 1 1 1 1 2 2 1 1 1 2 2 3 3 3 3 3 3 4 3 3 3 3 2 2 3 4 4
0 0 0 0 1 1 1 1 1 0 0 0 0 0 0 1 1 1 1 1 1 2 2 1 1 1 1 2 3 3 3 3 3 3 3 3 3 3 3 2 2 2 2 3
0 0 0 0 1 1 1 1 1 0 0 0 0 0 1 1 1 1 1 1 1 2 2 1 1 1 1 2 3 3 3 3 2 2 2 3 3 3 2 2 2 2 2 2
0 0 0 0 0 1 1 1 0 1 1 1 1 1 1 1 1 1 1 1 1 2 2 1 1 1 1 1 2 3 3 3 2 2 1 2 2 2 2 2 2 2 2 1
0 0 0 0 0 0 1 1 0 1 1 1 1 1 1 1 1 1 1 1 2 2 2 1 1 1 1 1 2 3 3 3 2 1 1 1 2 2 2 2 2 2 2 1
0 0 0 0 0 0 0 0 0 0 1 1 1 1 1 1 1 1 1 1 2 2 2 1 1 1 1 1 2 3 3 2 2 1 1 1 2 2 2 2 2 2 2 1
0 0 0 0 0 0 0 0 0 0 0 1 1 1 1 1 1 1 1 1 2 2 1 1 1 1 1 1 2 3 3 2 2 1 1 1 1 2 2 2 2 2 2 1
1 0 0 0 0 0 0 0 0 0 0 0 0 1 1 1 1 1 1 1 1 1 1 1 1 1 1 1 2 2 3 2 2 1 1 1 1 1 1 2 2 2 2 2
1 1 0 0 0 0 1 1 0 0 0 0 0 0 1 1 1 1 1 1 1 1 1 1 1 1 1 1 1 2 2 2 1 1 1 1 1 1 1 1 1 2 2 2
1 0 0 1 1 1 1 1 1 1 1 0 0 0 1 1 1 2 2 2 2 1 2 2 1 1 1 1 1 1 1 1 1 1 1 1 1 1 1 1 1 1 1 1
0 0 0 1 1 0 0 0 0 1 1 1 0 0 1 1 1 2 3 3 2 2 2 2 2 1 1 1 1 1 1 1 1 2 2 2 2 2 2 2 1 1 1 1
0 0 0 0 0 0 0 0 0 1 1 0 0 0 0 1 2 3 3 3 3 2 2 2 2 2 1 1 2 1 1 1 1 2 2 2 2 2 2 2 2 1 1 1
Wind_Speed
5 5 7 9 8 6 4 3 3 4 2 1 4 5 4 8 10 10 10 10 12 12 10 10 11 12 12 11 11 11 10 9 8 6 6 5 5 4 3 4 5 5 5 6
4 6 8 7 6 4 3 3 4 4 2 1 2 4 3 7 12 13 13 13 13 10 9 10 11 12 13 13 12 12 11 10 10 8 6 4 4 3 3 3 4 5 6 6
8 6 8 7 6 6 5 5 4 3 4 3 1 4 2 3 4 5 7 8 10 12 13 13 13 13 12 13 14 13 12 11 10 8 5 4 3 2 2 3 3 4 5 6
6 5 6 7 7 8 6 6 5 3 0 3 1 3 5 3 4 6 8 8 10 11 11 12 12 13 13 13 12 11 11 10 10 9 9 9 7 5 5 5 4 4 5 5
7 6 7 8 8 9 6 4 4 2 3 1 1 2 8 1 5 10 11 12 11 11 12 12 13 14 12 11 10 10 10 10 10 10 11 10 7 5 4 4 5 5 4 5
6 4 7 9 7 8 5 5 5 5 4 2 4 4 7 5 9 8 10 11 11 11 11 11 11 9 8 9 9 9 9 9 10 11 11 10 10 8 8 7 7 5 3 3
3 4 4 4 5 3 5 6 3 3 2 6 3 4 10 8 7 8 10 11 11 10 10 10 10 10 10 11 11 10 10 10 11 11 11 10 10 10 11 9 8 7 5 4
6 6 6 6 8 7 7 11 9 6 6 4 1 6 8 5 4 4 5 7 8 9 9 10 11 11 11 12 12 12 12 11 11 12 11 9 9 8 7 8 7 8 6 6
8 7 5 6 7 11 8 6 7 7 3 1 4 6 8 2 2 1 4 6 8 9 10 10 10 10 10 10 11 12 12 11 11 11 10 9 9 9 8 8 7 6 5 6
9 4 4 3 4 3 8 10 7 7 7 3 3 4 5 5 4 3 4 7 7 8 8 9 9 9 9 9 9 9 10 11 10 10 10 9 9 9 9 8 8 8 7 7
6 5 2 1 5 8 6 5 6 6 6 7 3 7 6 7 6 6 6 6 7 8 9 8 8 8 8 7 8 9 9 8 8 9 9 9 9 9 8 8 9 9 8 8
5 6 3 4 3 5 6 9 9 8 5 5 5 8 4 4 4 5 5 4 5 6 6 7 7 7 7 8 8 9 9 9 9 9 8 9 9 9 9 9 9 9 8 8
6 7 3 3 3 2 4 4 5 7 7 6 6 7 2 1 2 3 4 4 4 5 5 5 6 6 7 7 8 8 8 9 8 8 8 8 9 9 10 9 9 9 9 8
6 5 7 9 7 5 4 4 6 7 6 6 7 6 3 3 3 3 4 4 4 5 5 6 5 6 6 6 7 7 7 7 8 8 9 9 9 9 9 8 8 9 9 9
5 4 4 4 4 5 4 6 8 6 8 9 9 8 8 7 6 5 4 4 4 4 5 5 5 5 5 6 6 6 6 6 7 8 9 9 8 8 8 8 8 8 9 10
3 3 2 1 2 4 3 4 7 5 5 4 4 5 5 2 2 3 3 5 5 4 4 4 5 5 6 7 7 6 6 7 7 8 9 8 7 8 8 8 8 8 8 8
1 3 4 2 1 3 1 4 5 4 4 7 8 7 3 3 4 4 4 4 5 4 4 4 4 5 6 7 7 8 7 6 7 8 8 8 8 9 9 9 8 9 9 8
3 3 3 3 3 4 6 2 3 5 1 2 3 3 5 5 3 2 3 4 3 3 3 4 3 3 4 4 5 6 6 7 7 8 8 8 8 9 8 8 9 9 8 8
4 5 4 4 3 1 3 1 3 4 0 0 4 4 4 5 4 2 1 2 2 2 2 2 3 3 3 4 5 6 6 7 8 9 9 9 9 9 8 9 9 8 7 8
3 3 5 4 4 5 5 2 1 4 0 1 4 6 5 4 3 2 1 2 2 2 1 0 0 1 2 3 5 6 7 8 9 10 9 9 9 9 9 9 8 6 6 8
2 3 4 4 3 4 3 3 1 4 6 2 4 5 5 3 3 2 2 2 2 2 2 2 1 0 1 2 4 6 6 8 8 7 7 8 8 8 8 7 6 6 6 6
2 3 3 4 3 4 3 2 3 3 1 3 4 4 5 5 4 4 3 3 4 4 3 3 2 1 1 1 3 4 5 4 4 5 6 7 7 7 6 6 6 6 7 6
1 2 3 4 4 2 2 1 1 1 3 2 3 5 7 6 4 4 4 4 4 4 3 3 2 2 2 1 2 3 2 2 4 5 6 6 6 5 5 6 6 5 5 5
1 1 2 1 1 1 2 3 3 4 4 4 5 6 6 6 5 5 4 4 5 4 4 3 3 3 3 3 1 0 1 2 4 6 5 5 6 5 4 4 4 4 4 5
1 1 1 1 1 2 4 4 4 6 7 7 6 6 6 8 7 5 5 4 4 4 4 4 3 3 3 3 3 2 1 3 4 5 5 5 5 6 5 4 3 3 2 3
1 0 1 2 2 2 1 2 4 6 6 6 7 7 7 7 7 6 6 4 4 5 4 4 5 4 4 4 4 4 2 3 5 5 5 5 5 5 5 6 6 9 7 7
Wind_Direction
152 130 190 194 182 180 172 178 246 257 263 247 246 258 240 189 189 190 187 184 189 198 189 178 180 179 179 181 179 182 181 175 167 165 168 168 178 176 173 179 180 179 174 166
112 219 202 172 174 185 204 235 261 295 326 229 269 280 257 193 198 196 192 191 192 185 177 178 180 182 184 184 184 184 183 180 178 177 172 168 164 164 176 179 175 180 177 171
172 215 176 166 170 181 212 207 220 250 336 1 3 325 290 244 209 202 198 194 193 191 188 185 186 187 185 187 187 189 185 182 179 169 154 140 121 107 149 171 180 186 183 178
206 224 169 173 187 170 229 217 199 208 63 295 56 288 280 226 212 209 205 200 201 196 190 187 187 189 191 191 188 185 182 178 175 168 167 168 172 178 187 178 181 177 180 179
215 194 180 193 196 173 205 187 185 191 176 265 311 189 279 202 220 224 213 208 206 196 188 188 191 193 190 183 180 179 174 176 175 175 178 178 179 176 165 162 171 176 175 180
212 204 187 197 196 180 164 89 59 52 88 232 231 175 266 227 217 219 211 208 204 195 186 184 186 178 172 170 173 175 174 180 179 180 181 183 179 170 165 174 180 182 174 176
230 246 220 174 162 165 136 106 53 18 37 240 235 185 244 245 231 217 205 204 200 189 182 174 172 173 173 174 175 177 181 185 185 186 187 186 183 179 180 181 183 180 179 186
180 243 221 188 174 173 171 147 158 179 201 248 222 222 249 263 264 236 209 194 185 179 178 176 178 176 179 180 178 179 185 189 186 188 190 187 184 184 187 183 180 185 190 190
172 231 249 207 175 149 144 175 164 131 148 175 260 275 299 291 303 196 176 173 179 180 178 179 177 175 179 183 185 185 187 189 189 188 186 187 189 188 186 183 181 183 184 183
154 201 256 214 124 131 148 147 117 132 149 205 265 261 249 255 242 203 180 180 180 176 175 175 177 179 180 182 183 183 187 189 188 186 189 191 193 193 187 180 184 184 183 178
144 161 282 100 163 166 120 122 124 130 155 154 197 259 231 222 214 202 201 191 181 177 176 177 179 178 175 174 176 180 183 182 185 189 192 190 192 190 187 188 190 187 182 180
151 135 214 249 236 173 153 159 145 149 186 167 163 255 274 212 209 189 188 189 179 173 173 173 170 165 168 174 178 183 185 188 191 190 189 191 189 186 190 194 193 187 187 187
139 125 121 339 346 93 125 146 148 126 121 148 161 251 306 124 164 182 174 175 169 162 160 158 155 163 174 180 183 185 188 193 189 183 185 188 188 189 195 197 193 189 189 188
129 129 163 189 205 178 160 158 150 127 144 177 203 225 259 225 207 199 183 175 161 154 157 159 162 171 178 183 185 185 191 191 185 183 187 192 194 194 196 195 193 193 191 188
115 153 192 211 197 168 166 170 166 162 172 172 207 209 227 214 206 197 173 155 144 149 158 168 172 178 182 185 189 188 189 186 184 185 191 197 195 191 189 192 195 194 192 194
70 145 147 266 188 161 151 183 175 172 168 175 167 227 239 189 146 155 158 154 160 168 177 184 182 182 192 195 193 192 194 189 181 188 195 192 187 188 192 195 194 194 196 194
55 122 119 201 209 100 216 219 181 172 180 167 189 214 168 157 171 180 179 172 177 181 184 191 200 201 203 201 196 196 198 189 187 193 194 191 188 192 195 195 191 196 197 192
143 115 121 133 108 176 238 252 159 142 164 195 178 163 162 168 151 133 155 165 180 190 197 203 207 211 209 201 197 192 186 187 193 197 197 194 192 197 195 191 196 199 195 194
161 142 121 120 136 219 283 246 154 143 188 244 159 145 131 123 84 34 53 137 157 181 201 213 214 217 208 202 192 182 188 191 196 201 200 197 194 196 195 198 200 197 191 195
82 108 115 122 137 199 232 261 222 108 286 266 161 158 153 129 133 243 10 79 94 81 70 37 209 198 207 206 183 183 193 197 204 203 199 193 190 192 197 201 198 190 188 195
74 68 105 128 155 244 268 298 119 153 217 180 155 159 149 148 167 141 63 55 70 76 68 58 66 130 244 202 181 189 195 207 209 198 186 183 186 189 192 189 181 176 178 179
144 133 146 136 152 229 331 15 161 196 126 110 121 119 112 112 100 86 72 64 61 60 58 57 53 5 337 181 175 187 208 214 188 176 177 179 180 184 182 173 170 167 168 173
124 177 168 168 189 258 317 240 282 133 114 110 112 110 114 109 96 84 70 61 57 49 44 49 52 30 11 24 166 192 221 183 165 165 168 167 164 166 162 163 163 158 162 168
340 50 100 80 31 5 21 31 37 70 90 92 104 109 108 109 103 88 74 62 53 44 35 40 47 44 26 17 28 227 171 160 161 161 158 154 152 147 140 141 146 152 161 166
326 26 84 106 118 54 36 40 59 73 82 84 82 89 102 106 100 95 85 74 61 47 33 36 46 44 30 23 27 24 88 135 141 144 141 140 136 132 124 109 92 124 126 156
351 9 172 208 202 135 88 52 77 90 90 93 94 86 82 92 99 95 85 73 65 55 45 42 39 37 28 30 35 31 51 125 136 134 133 133 127 124 123 118 96 61 70 79